Epoch 2017 Sept. 4.0 TT = JDT 2458000.5 T 2017 Sept. 23.83141 TT MPCW q 2.6938279 (2000.0) P Q n 0.07340554 Peri. 359.68206 +0.04295812 -0.91564718 a 5.6491552 Node 87.82932 +0.91751571 -0.12215834 e 0.5231450 Incl. 23.57617 +0.39537265 +0.38297204 P 13.43 From 34 observations 2017 Nov. 21-2018 Jan. 20, mean residual 0".3.
m1 = 15.0 + 5 logΔ + 10.0 log r